User: anonymous   Login
Location: Unspecified
(0.0000°N, 0.0000°E)
Time: 01:02:53
(UTC+01:00)
Language:

Delta 2 Rocket - Orbit

View from above orbital plane
View from above orbital plane
View from above satellite
View from above satellite

Ground track
Ground track

The orbit data is extracted from the following two-line orbital elements,

1 20453U 90008B   17082.95369317 +.00001235 +00000-0 +73274-4 0  9990
2 20453 035.6267 010.9595 0290384 179.6291 180.4678 14.82933348435545
Epoch (UTC): 23 March 2017 22:53:19
Eccentricity: 0.0290384
inclination: 35.6267°
perigee height: 417 km
apogee height: 823 km
right ascension of ascending node: 10.9595°
argument of perigee: 179.6291°
revolutions per day: 14.82933348
mean anomaly at epoch: 180.4678°
orbit number at epoch: 43554

The dashed part of the orbit path shows where the satellite is in the earth's shadow,  

DLR